Total_Precipitation_Accumulation
0.89 0.86 0.81 0.79 0.74 0.68 0.65 0.61 0.53 0.47 0.43 0.41 0.41 0.40 0.42 0.47 0.50 0.52 0.53 0.53 0.56 0.52 0.51 0.50 0.48 0.48 0.50 0.52 0.57 0.62 0.66 0.71 0.81 0.75 0.60 0.54 0.54 0.56 0.58 0.53 0.52 0.47 0.39
0.69 0.72 0.71 0.64 0.58 0.54 0.50 0.50 0.48 0.44 0.41 0.41 0.42 0.39 0.37 0.37 0.40 0.45 0.47 0.48 0.51 0.49 0.46 0.44 0.43 0.44 0.46 0.47 0.50 0.54 0.60 0.68 0.78 0.81 0.66 0.54 0.49 0.47 0.46 0.45 0.38 0.34 0.34
0.47 0.47 0.51 0.49 0.46 0.43 0.39 0.39 0.38 0.37 0.37 0.36 0.36 0.34 0.34 0.34 0.33 0.33 0.35 0.37 0.38 0.39 0.39 0.41 0.43 0.43 0.42 0.43 0.46 0.49 0.56 0.64 0.75 0.77 0.66 0.56 0.50 0.48 0.55 0.51 0.43 0.49 0.39
0.40 0.37 0.41 0.42 0.41 0.39 0.38 0.36 0.34 0.33 0.32 0.29 0.26 0.24 0.24 0.24 0.23 0.21 0.20 0.22 0.25 0.25 0.27 0.32 0.38 0.41 0.41 0.46 0.49 0.51 0.55 0.62 0.66 0.69 0.60 0.50 0.50 0.51 0.61 0.66 0.60 0.55 0.47
0.40 0.40 0.42 0.40 0.39 0.40 0.41 0.38 0.35 0.32 0.28 0.25 0.22 0.19 0.17 0.16 0.16 0.15 0.15 0.15 0.19 0.20 0.21 0.24 0.28 0.32 0.38 0.41 0.42 0.47 0.54 0.62 0.65 0.67 0.61 0.54 0.51 0.61 0.68 0.68 0.63 0.58 0.48
0.41 0.44 0.46 0.44 0.44 0.44 0.42 0.41 0.38 0.33 0.28 0.23 0.17 0.15 0.13 0.11 0.12 0.12 0.13 0.16 0.18 0.20 0.23 0.23 0.20 0.19 0.21 0.22 0.28 0.36 0.45 0.55 0.64 0.70 0.68 0.66 0.59 0.63 0.72 0.72 0.72 0.70 0.60
0.47 0.46 0.47 0.45 0.45 0.42 0.38 0.39 0.37 0.32 0.28 0.24 0.18 0.15 0.14 0.11 0.08 0.08 0.09 0.14 0.20 0.25 0.28 0.26 0.20 0.17 0.21 0.25 0.25 0.27 0.36 0.42 0.55 0.71 0.77 0.70 0.66 0.70 0.81 0.84 0.79 0.78 0.75
0.50 0.49 0.45 0.41 0.41 0.38 0.37 0.38 0.35 0.31 0.28 0.25 0.21 0.17 0.17 0.11 0.06 0.06 0.07 0.11 0.18 0.20 0.20 0.22 0.27 0.29 0.23 0.20 0.22 0.31 0.42 0.49 0.54 0.60 0.70 0.66 0.63 0.65 0.73 0.79 0.76 0.76 0.69
0.49 0.45 0.38 0.34 0.34 0.33 0.36 0.37 0.34 0.32 0.30 0.26 0.22 0.19 0.19 0.14 0.06 0.04 0.04 0.10 0.14 0.14 0.14 0.15 0.18 0.23 0.18 0.17 0.27 0.44 0.52 0.63 0.65 0.76 0.76 0.70 0.70 0.69 0.61 0.63 0.80 0.92 0.86
0.36 0.31 0.26 0.25 0.27 0.28 0.30 0.31 0.30 0.30 0.28 0.24 0.21 0.20 0.18 0.15 0.07 0.04 0.04 0.09 0.13 0.13 0.17 0.20 0.16 0.13 0.14 0.19 0.31 0.51 0.67 0.73 0.86 1.05 1.00 0.93 0.86 0.82 0.70 0.67 0.89 1.06 1.05
0.24 0.20 0.19 0.19 0.21 0.22 0.25 0.29 0.29 0.28 0.29 0.26 0.24 0.22 0.17 0.10 0.06 0.02 0.02 0.07 0.10 0.14 0.20 0.25 0.25 0.18 0.17 0.19 0.31 0.53 0.70 0.72 0.94 1.20 1.10 0.93 0.86 0.80 0.77 0.79 0.87 0.94 0.92
0.19 0.19 0.19 0.16 0.13 0.14 0.24 0.30 0.28 0.30 0.31 0.30 0.28 0.23 0.17 0.12 0.06 0.02 0.01 0.02 0.05 0.17 0.30 0.30 0.29 0.26 0.23 0.28 0.42 0.61 0.75 0.90 1.06 1.16 0.99 0.81 0.70 0.69 0.69 0.64 0.62 0.64 0.69
0.22 0.24 0.23 0.19 0.17 0.17 0.22 0.27 0.28 0.29 0.26 0.23 0.22 0.20 0.18 0.16 0.10 0.03 0.02 0.02 0.05 0.15 0.30 0.34 0.33 0.30 0.38 0.56 0.69 0.80 0.93 1.09 1.13 1.00 0.86 0.75 0.63 0.58 0.54 0.52 0.51 0.54 0.57
0.24 0.22 0.20 0.21 0.23 0.23 0.22 0.18 0.20 0.22 0.19 0.17 0.18 0.19 0.21 0.20 0.12 0.07 0.08 0.10 0.12 0.17 0.26 0.39 0.47 0.50 0.65 0.85 0.98 1.07 1.15 1.16 1.01 0.90 0.79 0.69 0.57 0.54 0.52 0.46 0.48 0.50 0.54
0.21 0.20 0.19 0.16 0.19 0.25 0.21 0.12 0.10 0.10 0.07 0.10 0.14 0.15 0.20 0.19 0.09 0.07 0.10 0.13 0.16 0.20 0.26 0.41 0.57 0.63 0.76 0.92 1.03 1.08 1.11 1.09 1.01 0.88 0.77 0.67 0.59 0.54 0.50 0.43 0.42 0.44 0.47
0.21 0.17 0.12 0.10 0.13 0.15 0.18 0.16 0.07 0.03 0.02 0.03 0.05 0.06 0.08 0.09 0.07 0.06 0.08 0.12 0.17 0.23 0.31 0.52 0.64 0.66 0.74 0.84 0.93 1.01 1.00 0.95 0.88 0.83 0.78 0.72 0.63 0.54 0.50 0.45 0.41 0.41 0.45
0.15 0.13 0.08 0.06 0.08 0.11 0.14 0.21 0.22 0.12 0.03 0.02 0.02 0.04 0.05 0.06 0.07 0.06 0.07 0.12 0.16 0.25 0.38 0.58 0.68 0.74 0.79 0.82 0.83 0.86 0.91 0.91 0.82 0.76 0.71 0.65 0.56 0.50 0.46 0.43 0.39 0.37 0.38
0.07 0.05 0.05 0.07 0.06 0.07 0.08 0.11 0.16 0.23 0.22 0.17 0.07 0.04 0.04 0.07 0.09 0.09 0.10 0.13 0.21 0.27 0.42 0.57 0.67 0.73 0.77 0.79 0.77 0.74 0.77 0.79 0.73 0.65 0.60 0.54 0.49 0.46 0.41 0.39 0.35 0.28 0.27
0.06 0.06 0.05 0.04 0.04 0.03 0.04 0.06 0.08 0.13 0.18 0.19 0.17 0.10 0.07 0.10 0.13 0.14 0.16 0.20 0.26 0.30 0.38 0.51 0.60 0.65 0.66 0.67 0.67 0.65 0.66 0.67 0.63 0.57 0.53 0.49 0.45 0.41 0.37 0.30 0.26 0.18 0.21
0.04 0.02 0.03 0.03 0.03 0.02 0.02 0.04 0.06 0.11 0.12 0.14 0.16 0.14 0.12 0.22 0.33 0.30 0.24 0.23 0.24 0.27 0.34 0.45 0.54 0.56 0.55 0.51 0.49 0.49 0.50 0.50 0.50 0.48 0.47 0.45 0.41 0.36 0.29 0.24 0.21 0.21 0.22
0.02 0.01 0.01 0.01 0.01 0.01 0.01 0.02 0.04 0.07 0.10 0.12 0.10 0.09 0.16 0.27 0.37 0.36 0.31 0.30 0.30 0.30 0.32 0.36 0.42 0.45 0.44 0.40 0.36 0.34 0.34 0.37 0.38 0.38 0.39 0.38 0.33 0.29 0.23 0.18 0.16 0.13 0.13
0.01 0.01 0.01 0.01 0.00 0.00 0.01 0.01 0.02 0.03 0.05 0.09 0.10 0.10 0.16 0.22 0.29 0.33 0.35 0.35 0.37 0.36 0.33 0.33 0.34 0.36 0.35 0.33 0.30 0.27 0.26 0.27 0.28 0.31 0.33 0.32 0.28 0.23 0.17 0.12 0.09 0.08 0.07
0.01 0.01 0.01 0.00 0.00 0.00 0.01 0.02 0.02 0.02 0.03 0.05 0.07 0.11 0.15 0.23 0.28 0.35 0.39 0.38 0.37 0.37 0.33 0.29 0.32 0.35 0.32 0.28 0.25 0.22 0.21 0.21 0.21 0.24 0.31 0.32 0.26 0.19 0.13 0.09 0.06 0.05 0.04
0.00 0.01 0.01 0.00 0.00 0.01 0.01 0.01 0.01 0.01 0.01 0.03 0.05 0.08 0.12 0.18 0.23 0.27 0.33 0.36 0.37 0.37 0.37 0.37 0.37 0.36 0.31 0.25 0.21 0.19 0.19 0.19 0.19 0.23 0.27 0.29 0.24 0.16 0.10 0.07 0.05 0.04 0.04
0.00 0.00 0.00 0.00 0.00 0.00 0.00 0.01 0.01 0.01 0.01 0.02 0.03 0.05 0.09 0.11 0.13 0.16 0.21 0.26 0.29 0.32 0.34 0.36 0.35 0.32 0.27 0.22 0.17 0.14 0.16 0.16 0.14 0.18 0.25 0.28 0.21 0.14 0.09 0.06 0.05 0.04 0.04
0.00 0.00 0.00 0.00 0.00 0.00 0.00 0.00 0.01 0.01 0.01 0.01 0.02 0.03 0.05 0.07 0.09 0.12 0.14 0.17 0.19 0.23 0.27 0.32 0.32 0.23 0.16 0.12 0.11 0.10 0.08 0.06 0.05 0.08 0.18 0.23 0.17 0.12 0.12 0.09 0.05 0.04 0.05